Showing default

ZY 3 2, 41556

Orbit data source: Space-Track

ZY 3 2, 41556 is a Chinese payload satellite in SSO that was launched on Mon, 30 May 2016 UTC via a CHANG ZHENG 4B launch vehicle from the Taiyaun Space Center, China (TSC). Payload-class satellites include a variety of spacecraft equipped with specific instruments for various scientific and technological missions. These include communications satellites like Starlink; space stations such as the ISS; scientific satellites like the Hubble; Earth observation satellites from companies like Planet Labs, Umbra, and HawkEye 360; GPS; miniature CubeSats for education and research; and military/defense satellites.

Loading next visibility...
Identifier
41556, 2016-033A
Orbit
SSO
Last TLE update
4 hours ago
Origin
Manufacturer
CAST
Mission
Operational Civil Imaging
Bus & Motor
ZY, AOCS 20N
Mass
2,650 kg wet, ~2,600 kg dry
Launch date (UTC)
2016-05-30 (9 years ago)
Launch vehicle
CHANG ZHENG 4B
Launch site
Taiyaun Space Center, China (TSC)
Object type
Payload
Rocket body
Debris
Shape & HBR
Box + 2 Pan, 10 m
Radar Cross Section
10.304 m², Large (>1 m²)

Expand to show TLE details & history

TLE from 4 hours ago
0 ZY 3 2
1 41556U 16033A   25192.15094933  .00003833  00000-0  17407-3 0  9996
2 41556  97.4192 268.7351 0011657  66.8610 293.3853 15.21319448506130
Epoch: 2025-07-11T03:37Z
TLE epoch observation values (Epoch: 2025-07-11T03:37:22.022Z)
Latitude
0.00001°
Longitude
-74.91366°
Altitude
501.775 km
Speed
7.615 km/s
True Right ascension
17h 54m 56s
True Declination
0° 00' 00"
Sunlit
Object was in full shadow at epoch
Visualization orbit readout
Latitude
-48.00553°
Longitude
96.98598°
Altitude
528.139 km
Speed
7.593 km/s
Apparent Right ascension
06h 45m 46s
Apparent Declination
-45° 45' 25"
Sunlit
Object is in daylight
Visualization observer readout
Local Sidereal Time
20:04:13
Azimuth
118.611° SE
Elevation
-74.529°
Doppler factor
1
Orbital elements
Apogee altitude
506.841 km
Perigee altitude
490.808 km
Semi-major axis
6,876.961 km
Eccentricity
0.00117
Inclination
97.4192°
RAAN
268.7351°
Arg. of periapsis
66.861°
True anomaly
Unknown
Mean anomaly
293.3853°
Eccentric anomaly
Unknown
Mean motion
3.80582 °/min
Orbital period
94.59 mins
BSTAR
0.00017407
Loading maneuver chart data...
Loading SW <> Apogee altitude chart data...
Loading historical data...
Loading historical data...
Loading historical data...
Loading historical data...
Loading historical data...
Loading historical data...
Loading historical data...

ZY 3 2 Visibility forecast

Observer location: undefined°, undefined°

Span
Click to sort rows by Start time (UTC) header in descending order
Start Az.
Max El. time (UTC)
Max El. Az.
Max El.
End time (UTC)
End Az.
5 mins2025-07-11 18:23:46.868Z350.763° N2025-07-11 18:25:46.868Z305.039° NW33.316°2025-07-11 18:28:46.868Z219.618° SW
5 mins2025-07-12 05:01:46.868Z150.011° SSE2025-07-12 05:03:46.868Z43.496° NE41.421°2025-07-12 05:06:46.868Z354.617° N
|